• In Netherlands
  • List of Countries
  • For 7 days
  • Water Temperature
  • Satellite Maps
  • Weather Map
  • Weather Widgets
  • user-avatar
    Login

    Hourly Weather Ravda

    Today, 21 May, Monday

    Time Temperature Precipitation Wind Pressure Humidity
    00:00 +16°C° 0 mm 1 mps 763 mmHg 91%
    01:00 +16°C° 0 mm 1 mps 763 mmHg 91%
    02:00 +15°C° 0 mm 2 mps 763 mmHg 91%
    03:00 +15°C° 0 mm 2 mps 763 mmHg 91%
    04:00 +15°C° 0 mm 2 mps 763 mmHg 91%
    05:00 +15°C° 0 mm 2 mps 763 mmHg 91%
    06:00 +16°C° 0 mm 2 mps 763 mmHg 86%
    07:00 +18°C° 0 mm 3 mps 763 mmHg 81%
    08:00 +20°C° 0 mm 3 mps 763 mmHg 75%
    09:00 +21°C° 0 mm 3 mps 763 mmHg 71%
    10:00 +22°C° 0 mm 4 mps 763 mmHg 67%
    11:00 +25°C° 0 mm 4 mps 763 mmHg 63%
    12:00 +25°C° 0.1 mm 4 mps 763 mmHg 63%
    13:00 +25°C° 0.1 mm 5 mps 763 mmHg 63%
    14:00 +25°C° 0.1 mm 5 mps 763 mmHg 63%
    15:00 +23°C° 0 mm 5 mps 763 mmHg 67%
    16:00 +23°C° 0 mm 5 mps 762 mmHg 70%
    17:00 +22°C° 0 mm 5 mps 762 mmHg 73%
    18:00 +20°C° 0 mm 5 mps 762 mmHg 81%
    19:00 +18°C° 0 mm 4 mps 763 mmHg 88%
    20:00 +17°C° 0 mm 4 mps 763 mmHg 96%
    21:00 +17°C° 0 mm 4 mps 763 mmHg 96%
    22:00 +15°C° 0 mm 4 mps 763 mmHg 97%
    23:00 +16°C° 0 mm 3 mps 763 mmHg 97%

    Tomorrow, 22 May, Tuesday

    Time Temperature Precipitation Wind Pressure Humidity
    00:00 +16°C° 0 mm 3 mps 763 mmHg 97%
    01:00 +16°C° 0 mm 3 mps 763 mmHg 96%
    02:00 +16°C° 0 mm 3 mps 763 mmHg 96%
    03:00 +16°C° 0 mm 3 mps 763 mmHg 95%
    04:00 +16°C° 0 mm 3 mps 763 mmHg 95%
    05:00 +14°C° 0 mm 3 mps 763 mmHg 95%
    06:00 +17°C° 0 mm 3 mps 763 mmHg 91%
    07:00 +18°C° 0 mm 3 mps 763 mmHg 87%
    08:00 +19°C° 0 mm 3 mps 763 mmHg 82%
    09:00 +21°C° 0 mm 3 mps 764 mmHg 75%
    10:00 +22°C° 0 mm 4 mps 764 mmHg 68%
    11:00 +25°C° 0 mm 4 mps 764 mmHg 62%
    12:00 +25°C° 0 mm 4 mps 764 mmHg 59%
    13:00 +26°C° 0 mm 4 mps 763 mmHg 57%
    14:00 +26°C° 0 mm 4 mps 763 mmHg 55%
    15:00 +26°C° 0 mm 4 mps 763 mmHg 58%
    16:00 +25°C° 0 mm 4 mps 763 mmHg 61%
    17:00 +23°C° 0 mm 4 mps 763 mmHg 63%
    18:00 +21°C° 0 mm 3 mps 763 mmHg 72%
    19:00 +19°C° 0 mm 3 mps 763 mmHg 81%
    20:00 +17°C° 0 mm 2 mps 764 mmHg 91%
    21:00 +17°C° 0 mm 2 mps 764 mmHg 91%
    22:00 +16°C° 0 mm 2 mps 764 mmHg 92%
    23:00 +15°C° 0 mm 1 mps 764 mmHg 93%

    Day after tomorrow, 23 May, Wednesday

    Time Temperature Precipitation Wind Pressure Humidity
    00:00 +15°C° 0 mm 2 mps 764 mmHg 93%
    01:00 +15°C° 0 mm 2 mps 764 mmHg 93%
    02:00 +15°C° 0 mm 2 mps 764 mmHg 93%
    03:00 +15°C° 0 mm 2 mps 764 mmHg 93%
    04:00 +14°C° 0 mm 2 mps 764 mmHg 93%
    05:00 +14°C° 0 mm 2 mps 764 mmHg 93%
    06:00 +17°C° 0 mm 2 mps 764 mmHg 86%
    07:00 +19°C° 0 mm 2 mps 764 mmHg 80%
    08:00 +21°C° 0 mm 2 mps 764 mmHg 73%
    09:00 +23°C° 0 mm 2 mps 764 mmHg 67%
    10:00 +25°C° 0 mm 3 mps 764 mmHg 60%
    11:00 +26°C° 0 mm 3 mps 764 mmHg 54%
    12:00 +27°C° 0 mm 3 mps 764 mmHg 53%
    13:00 +27°C° 0 mm 3 mps 764 mmHg 52%
    14:00 +28°C° 0 mm 4 mps 763 mmHg 51%
    15:00 +27°C° 0 mm 4 mps 763 mmHg 55%
    16:00 +26°C° 0 mm 3 mps 763 mmHg 58%
    17:00 +26°C° 0 mm 3 mps 763 mmHg 61%
    18:00 +24°C° 0 mm 3 mps 763 mmHg 70%
    19:00 +20°C° 0 mm 2 mps 763 mmHg 79%
    20:00 +18°C° 0 mm 2 mps 762 mmHg 88%
    21:00 +18°C° 0 mm 1 mps 762 mmHg 88%
    22:00 +18°C° 0 mm 1 mps 762 mmHg 88%
    23:00 +16°C° 0 mm 1 mps 762 mmHg 88%

    24 May, Thursday

    Time Temperature Precipitation Wind Pressure Humidity
    00:00 +16°C° 0 mm 1 mps 762 mmHg 87%
    01:00 +15°C° 0 mm 1 mps 762 mmHg 87%
    02:00 +15°C° 0 mm 1 mps 761 mmHg 87%
    03:00 +15°C° 0 mm 2 mps 761 mmHg 87%
    04:00 +15°C° 0 mm 2 mps 761 mmHg 87%
    05:00 +15°C° 0 mm 2 mps 761 mmHg 87%
    06:00 +17°C° 0 mm 2 mps 761 mmHg 81%
    07:00 +19°C° 0 mm 2 mps 761 mmHg 74%
    08:00 +23°C° 0 mm 2 mps 761 mmHg 68%
    09:00 +24°C° 0 mm 3 mps 761 mmHg 64%
    10:00 +26°C° 0 mm 3 mps 761 mmHg 60%
    11:00 +27°C° 0 mm 4 mps 761 mmHg 56%
    12:00 +28°C° 0 mm 4 mps 760 mmHg 56%
    13:00 +28°C° 0 mm 4 mps 760 mmHg 55%
    14:00 +28°C° 0 mm 5 mps 759 mmHg 55%
    15:00 +27°C° 0.1 mm 5 mps 759 mmHg 59%
    16:00 +27°C° 0.1 mm 5 mps 759 mmHg 63%
    17:00 +26°C° 0.1 mm 5 mps 759 mmHg 68%
    18:00 +23°C° 0 mm 4 mps 759 mmHg 75%
    19:00 +21°C° 0 mm 3 mps 759 mmHg 83%
    20:00 +19°C° 0 mm 2 mps 759 mmHg 91%
    21:00 +19°C° 0 mm 2 mps 759 mmHg 91%
    22:00 +18°C° 0 mm 2 mps 759 mmHg 91%
    23:00 +18°C° 0 mm 2 mps 759 mmHg 90%

    25 May, Friday

    Time Temperature Precipitation Wind Pressure Humidity
    00:00 +18°C° 0 mm 3 mps 758 mmHg 90%
    01:00 +17°C° 0 mm 3 mps 758 mmHg 90%
    02:00 +17°C° 0 mm 3 mps 758 mmHg 90%
    03:00 +17°C° 0 mm 3 mps 758 mmHg 90%
    04:00 +17°C° 0 mm 3 mps 758 mmHg 91%
    05:00 +16°C° 0 mm 3 mps 758 mmHg 91%
    06:00 +19°C° 0 mm 4 mps 758 mmHg 84%
    07:00 +21°C° 0 mm 4 mps 758 mmHg 78%
    08:00 +23°C° 0 mm 4 mps 758 mmHg 71%
    09:00 +25°C° 0.2 mm 5 mps 758 mmHg 67%
    10:00 +26°C° 0.2 mm 5 mps 758 mmHg 64%
    11:00 +28°C° 0.2 mm 5 mps 758 mmHg 60%
    12:00 +28°C° 0.3 mm 5 mps 758 mmHg 61%
    13:00 +28°C° 0.3 mm 5 mps 758 mmHg 61%
    14:00 +28°C° 0.3 mm 4 mps 758 mmHg 62%
    15:00 +28°C° 0.2 mm 4 mps 758 mmHg 65%
    16:00 +27°C° 0.2 mm 4 mps 758 mmHg 67%
    17:00 +26°C° 0.2 mm 3 mps 758 mmHg 70%
    18:00 +25°C° 0.1 mm 3 mps 758 mmHg 77%
    19:00 +22°C° 0.1 mm 3 mps 758 mmHg 83%
    20:00 +20°C° 0.1 mm 2 mps 758 mmHg 89%
    21:00 +20°C° 0 mm 2 mps 758 mmHg 90%
    22:00 +19°C° 0 mm 3 mps 758 mmHg 90%
    23:00 +19°C° 0 mm 3 mps 758 mmHg 91%

    26 May, Saturday

    Time Temperature Precipitation Wind Pressure Humidity
    00:00 +19°C° 0 mm 3 mps 758 mmHg 91%
    01:00 +18°C° 0 mm 4 mps 758 mmHg 91%
    02:00 +18°C° 0 mm 4 mps 758 mmHg 91%
    03:00 +18°C° 0 mm 4 mps 758 mmHg 92%
    04:00 +17°C° 0 mm 5 mps 759 mmHg 92%
    05:00 +16°C° 0 mm 5 mps 759 mmHg 93%
    06:00 +19°C° 0 mm 5 mps 759 mmHg 88%
    07:00 +20°C° 0 mm 6 mps 759 mmHg 83%
    08:00 +22°C° 0 mm 6 mps 760 mmHg 78%
    09:00 +23°C° 0 mm 6 mps 760 mmHg 73%
    10:00 +24°C° 0 mm 6 mps 760 mmHg 68%
    11:00 +26°C° 0 mm 6 mps 760 mmHg 63%
    12:00 +26°C° 0 mm 6 mps 760 mmHg 64%
    13:00 +26°C° 0 mm 6 mps 760 mmHg 66%
    14:00 +25°C° 0 mm 5 mps 760 mmHg 67%
    15:00 +25°C° 0 mm 5 mps 759 mmHg 69%
    16:00 +25°C° 0 mm 4 mps 759 mmHg 70%
    17:00 +25°C° 0 mm 4 mps 759 mmHg 72%
    18:00 +22°C° 0 mm 3 mps 759 mmHg 78%
    19:00 +21°C° 0 mm 3 mps 760 mmHg 84%
    20:00 +20°C° 0 mm 2 mps 760 mmHg 90%
    21:00 +19°C° 0 mm 2 mps 760 mmHg 92%
    22:00 +19°C° 0 mm 3 mps 760 mmHg 94%
    23:00 +18°C° 0 mm 3 mps 760 mmHg 95%
    Show more